RYR8S LEGE-LEAL

Flight info

Callsign RYR8S
Flight time 0h 53m
Altitude 29000
Route MAMUK L110 SEROX N860 VLC
Aircraft B738/M-SDE2E3FGHIRWXY/LB1

Departure

Time 2026-05-07 13:19
Airport Girona-Costa Brava Airport (LEGE)

Arrival

Time 2026-05-07 14:13
Airport Alicante-Elche Miguel Hernández Airport (LEAL)
Time Latitude Longitude Altitude Speed Heading
2026-05-07 13:02 41.89850 2.76476 426 ft 0 kts 105°
2026-05-07 13:10 41.89851 2.76472 426 ft 1 kts 104°
2026-05-07 13:11 41.89852 2.76460 426 ft 2 kts 94°
2026-05-07 13:11 41.89852 2.76440 426 ft 2 kts 79°
2026-05-07 13:11 41.89848 2.76421 426 ft 2 kts 63°
2026-05-07 13:11 41.89840 2.76404 426 ft 2 kts 47°
2026-05-07 13:12 41.89828 2.76391 426 ft 2 kts 31°
2026-05-07 13:12 41.89817 2.76384 426 ft 0 kts 18°
2026-05-07 13:12 41.89811 2.76382 425 ft 0 kts 15°
2026-05-07 13:12 41.89810 2.76382 425 ft 0 kts 15°
2026-05-07 13:14 41.89811 2.76382 425 ft 0 kts 15°
2026-05-07 13:14 41.89843 2.76390 426 ft 8 kts
2026-05-07 13:14 41.89893 2.76322 427 ft 13 kts 287°
2026-05-07 13:15 41.89942 2.76228 426 ft 11 kts 356°
2026-05-07 13:15 41.90023 2.76256 429 ft 12 kts 18°
2026-05-07 13:15 41.90110 2.76293 431 ft 14 kts 17°
2026-05-07 13:15 41.90214 2.76331 433 ft 17 kts 15°
2026-05-07 13:16 41.90336 2.76375 437 ft 18 kts 15°
2026-05-07 13:16 41.90451 2.76418 441 ft 17 kts 16°
2026-05-07 13:16 41.90583 2.76470 446 ft 21 kts 15°
2026-05-07 13:16 41.90731 2.76525 453 ft 23 kts 15°
2026-05-07 13:17 41.90903 2.76591 458 ft 28 kts 16°
2026-05-07 13:17 41.91099 2.76663 462 ft 30 kts 16°
2026-05-07 13:17 41.91302 2.76743 460 ft 28 kts 15°
2026-05-07 13:17 41.91439 2.76741 459 ft 16 kts 333°
2026-05-07 13:18 41.91531 2.76671 461 ft 13 kts 314°
2026-05-07 13:18 41.91539 2.76611 465 ft 3 kts 227°
2026-05-07 13:18 41.91445 2.76566 468 ft 45 kts 196°
2026-05-07 13:18 41.90866 2.76348 460 ft 126 kts 196°
2026-05-07 13:19 41.89789 2.75939 542 ft 182 kts 196°
2026-05-07 13:19 41.88644 2.75421 1518 ft 176 kts 202°
2026-05-07 13:19 41.87544 2.74816 2423 ft 170 kts 202°
2026-05-07 13:19 41.86404 2.74263 2857 ft 185 kts 199°
2026-05-07 13:20 41.85169 2.73682 3454 ft 190 kts 200°
2026-05-07 13:20 41.83861 2.73059 3847 ft 214 kts 200°
2026-05-07 13:20 41.82364 2.72386 4207 ft 243 kts 198°
2026-05-07 13:20 41.80730 2.71695 4973 ft 252 kts 197°
2026-05-07 13:21 41.79037 2.70984 5813 ft 260 kts 198°
2026-05-07 13:21 41.77362 2.70267 6912 ft 255 kts 198°
2026-05-07 13:21 41.75685 2.69529 7810 ft 258 kts 199°
2026-05-07 13:21 41.73973 2.68761 8474 ft 270 kts 198°
2026-05-07 13:22 41.72180 2.67970 9271 ft 275 kts 199°
2026-05-07 13:22 41.70380 2.67131 10253 ft 273 kts 200°
2026-05-07 13:22 41.68609 2.66268 10977 ft 280 kts 200°
2026-05-07 13:22 41.66747 2.65209 11145 ft 305 kts 211°
2026-05-07 13:23 41.65129 2.63322 11690 ft 314 kts 233°
2026-05-07 13:23 41.64166 2.60727 12526 ft 313 kts 256°
2026-05-07 13:23 41.63993 2.57869 13269 ft 314 kts 278°
2026-05-07 13:23 41.64662 2.55088 13889 ft 319 kts 300°
2026-05-07 13:24 41.65984 2.52683 14401 ft 327 kts 314°
2026-05-07 13:24 41.67574 2.50540 15054 ft 330 kts 314°
2026-05-07 13:24 41.69080 2.48203 15555 ft 339 kts 306°
2026-05-07 13:24 41.70275 2.45349 15814 ft 356 kts 293°
2026-05-07 13:25 41.71174 2.42211 16079 ft 373 kts 291°
2026-05-07 13:25 41.72163 2.38948 16374 ft 387 kts 294°
2026-05-07 13:25 41.73295 2.35615 16940 ft 393 kts 295°
2026-05-07 13:25 41.74471 2.32290 17474 ft 399 kts 295°
2026-05-07 13:26 41.75665 2.28963 18123 ft 401 kts 295°
2026-05-07 13:26 41.76891 2.25581 18641 ft 407 kts 296°
2026-05-07 13:26 41.78133 2.22178 19256 ft 409 kts 296°
2026-05-07 13:26 41.79384 2.18765 19789 ft 412 kts 296°
2026-05-07 13:27 41.80654 2.15310 20342 ft 415 kts 296°
2026-05-07 13:27 41.81881 2.11783 20859 ft 419 kts 292°
2026-05-07 13:27 41.82792 2.08102 21337 ft 423 kts 281°
2026-05-07 13:27 41.82990 2.04162 21844 ft 425 kts 266°
2026-05-07 13:28 41.82589 2.00263 22393 ft 427 kts 259°
2026-05-07 13:28 41.82033 1.96277 22804 ft 432 kts 259°
2026-05-07 13:28 41.81492 1.92351 23298 ft 434 kts 259°
2026-05-07 13:28 41.80941 1.88353 23728 ft 438 kts 259°
2026-05-07 13:29 41.80381 1.84347 24174 ft 440 kts 259°
2026-05-07 13:29 41.79809 1.80299 24593 ft 443 kts 259°
2026-05-07 13:29 41.79234 1.76255 25002 ft 446 kts 259°
2026-05-07 13:29 41.78653 1.72194 25397 ft 448 kts 259°
2026-05-07 13:30 41.78056 1.68041 25783 ft 451 kts 259°
2026-05-07 13:30 41.77463 1.63938 26154 ft 453 kts 259°
2026-05-07 13:30 41.76864 1.59805 26511 ft 456 kts 259°
2026-05-07 13:30 41.76264 1.55632 26861 ft 458 kts 259°
2026-05-07 13:31 41.75662 1.51447 27199 ft 461 kts 259°
2026-05-07 13:31 41.75050 1.47209 27571 ft 462 kts 259°
2026-05-07 13:31 41.74441 1.43012 27956 ft 462 kts 259°
2026-05-07 13:31 41.73828 1.38800 28349 ft 463 kts 259°
2026-05-07 13:32 41.73215 1.34595 28747 ft 463 kts 258°
2026-05-07 13:32 41.72595 1.30357 29149 ft 462 kts 258°
2026-05-07 13:32 41.71973 1.26120 29555 ft 461 kts 258°
2026-05-07 13:32 41.71357 1.21934 29953 ft 461 kts 258°
2026-05-07 13:33 41.70742 1.17764 30341 ft 460 kts 258°
2026-05-07 13:33 41.70035 1.13561 30731 ft 459 kts 255°
2026-05-07 13:33 41.69035 1.09518 31108 ft 458 kts 249°
2026-05-07 13:33 41.67857 1.05580 31485 ft 458 kts 248°
2026-05-07 13:34 41.66666 1.01652 31845 ft 457 kts 248°
2026-05-07 13:34 41.64283 0.93793 32557 ft 455 kts 248°
2026-05-07 13:34 41.63083 0.89878 32903 ft 455 kts 248°
2026-05-07 13:35 41.61895 0.86023 33237 ft 454 kts 248°
2026-05-07 13:35 41.60684 0.82110 33569 ft 453 kts 248°
2026-05-07 13:35 41.59492 0.78270 33890 ft 452 kts 248°
2026-05-07 13:35 41.58278 0.74374 34208 ft 452 kts 248°
2026-05-07 13:36 41.57080 0.70535 34518 ft 451 kts 248°
2026-05-07 13:36 41.55821 0.66711 34817 ft 450 kts 244°
2026-05-07 13:36 41.54319 0.63080 35114 ft 450 kts 239°
2026-05-07 13:36 41.52652 0.59523 35410 ft 449 kts 238°
2026-05-07 13:37 41.51002 0.56033 35688 ft 448 kts 238°
2026-05-07 13:37 41.49350 0.52525 35965 ft 448 kts 238°
2026-05-07 13:37 41.47690 0.49018 36232 ft 447 kts 238°
2026-05-07 13:37 41.46034 0.45536 36481 ft 447 kts 238°
2026-05-07 13:38 41.44355 0.42019 36723 ft 447 kts 238°
2026-05-07 13:38 41.42700 0.38562 36957 ft 447 kts 238°
2026-05-07 13:38 41.41034 0.35088 37182 ft 447 kts 238°
2026-05-07 13:38 41.39343 0.31590 37405 ft 446 kts 236°
2026-05-07 13:39 41.37486 0.28285 37608 ft 446 kts 229°
2026-05-07 13:39 41.35304 0.25357 37798 ft 446 kts 219°
2026-05-07 13:39 41.32760 0.23050 37971 ft 446 kts 208°
2026-05-07 13:40 41.27002 0.19965 38001 ft 454 kts 193°
2026-05-07 13:40 41.20759 0.18419 38001 ft 461 kts 190°
2026-05-07 13:41 41.14418 0.16874 37999 ft 466 kts 190°
2026-05-07 13:41 41.08175 0.14693 37999 ft 465 kts 197°
2026-05-07 13:42 41.02047 0.12155 37999 ft 464 kts 197°
2026-05-07 13:42 40.95894 0.09661 38000 ft 464 kts 197°
2026-05-07 13:43 40.89738 0.07176 38000 ft 464 kts 197°
2026-05-07 13:43 40.83613 0.04713 38000 ft 464 kts 197°
2026-05-07 13:44 40.77462 0.02247 37999 ft 464 kts 197°
2026-05-07 13:44 40.71281 -0.00225 37999 ft 464 kts 197°
2026-05-07 13:45 40.65109 -0.02688 37999 ft 464 kts 197°
2026-05-07 13:45 40.58945 -0.05142 38000 ft 464 kts 197°
2026-05-07 13:46 40.52808 -0.07581 37999 ft 464 kts 197°
2026-05-07 13:46 40.46640 -0.10027 38000 ft 464 kts 197°
2026-05-07 13:47 40.40499 -0.12458 38000 ft 464 kts 197°
2026-05-07 13:47 40.34321 -0.14899 37999 ft 464 kts 197°
2026-05-07 13:48 40.28181 -0.17321 38000 ft 464 kts 197°
2026-05-07 13:48 40.22009 -0.19750 38000 ft 464 kts 197°
2026-05-07 13:49 40.15838 -0.22174 38000 ft 464 kts 197°
2026-05-07 13:49 40.09695 -0.24583 38000 ft 464 kts 197°
2026-05-07 13:50 40.03503 -0.27006 38000 ft 464 kts 197°
2026-05-07 13:50 39.97373 -0.29400 38000 ft 464 kts 197°
2026-05-07 13:51 39.91187 -0.31811 38000 ft 464 kts 197°
2026-05-07 13:51 39.85046 -0.34200 37992 ft 456 kts 197°
2026-05-07 13:51 39.82065 -0.35358 37704 ft 447 kts 197°
2026-05-07 13:52 39.79120 -0.36502 37037 ft 446 kts 197°
2026-05-07 13:52 39.76134 -0.37660 36345 ft 445 kts 197°
2026-05-07 13:52 39.73219 -0.38790 35640 ft 445 kts 197°
2026-05-07 13:52 39.70261 -0.39936 34881 ft 446 kts 197°
2026-05-07 13:53 39.67292 -0.41084 34087 ft 446 kts 197°
2026-05-07 13:53 39.64342 -0.42224 33279 ft 448 kts 197°
2026-05-07 13:53 39.61353 -0.43378 32441 ft 449 kts 197°
2026-05-07 13:53 39.58373 -0.44528 31587 ft 450 kts 197°
2026-05-07 13:54 39.55391 -0.45678 30708 ft 451 kts 197°
2026-05-07 13:54 39.52407 -0.46827 29802 ft 452 kts 197°
2026-05-07 13:54 39.49390 -0.47988 28858 ft 454 kts 197°
2026-05-07 13:54 39.46421 -0.49103 28200 ft 448 kts 196°
2026-05-07 13:55 39.43442 -0.50164 27528 ft 443 kts 195°
2026-05-07 13:55 39.40502 -0.51203 26850 ft 438 kts 195°
2026-05-07 13:55 39.37593 -0.52212 26176 ft 433 kts 195°
2026-05-07 13:55 39.34708 -0.53209 25486 ft 429 kts 195°
2026-05-07 13:56 39.31850 -0.54202 24741 ft 427 kts 195°
2026-05-07 13:56 39.29015 -0.55196 23970 ft 425 kts 195°
2026-05-07 13:56 39.26200 -0.56195 23229 ft 422 kts 195°
2026-05-07 13:56 39.23382 -0.57179 22527 ft 417 kts 195°
2026-05-07 13:57 39.20587 -0.58146 21831 ft 413 kts 195°
2026-05-07 13:57 39.17860 -0.59078 21112 ft 410 kts 195°
2026-05-07 13:57 39.15111 -0.60013 20353 ft 408 kts 195°
2026-05-07 13:57 39.12381 -0.60958 19602 ft 405 kts 195°
2026-05-07 13:58 39.09699 -0.61907 18889 ft 401 kts 195°
2026-05-07 13:58 39.07056 -0.62832 18167 ft 397 kts 195°
2026-05-07 13:58 39.04393 -0.63719 17409 ft 395 kts 194°
2026-05-07 13:58 39.01762 -0.64601 16607 ft 394 kts 195°
2026-05-07 13:59 38.99124 -0.65496 15797 ft 392 kts 195°
2026-05-07 13:59 38.96495 -0.66414 15069 ft 388 kts 195°
2026-05-07 13:59 38.93928 -0.67324 14409 ft 383 kts 195°
2026-05-07 13:59 38.91407 -0.68235 13720 ft 379 kts 195°
2026-05-07 14:00 38.88870 -0.69147 12949 ft 377 kts 195°
2026-05-07 14:00 38.86351 -0.70022 12168 ft 375 kts 195°
2026-05-07 14:00 38.83878 -0.70882 11484 ft 371 kts 195°
2026-05-07 14:00 38.81388 -0.71759 10814 ft 366 kts 195°
2026-05-07 14:01 38.78981 -0.72620 10325 ft 357 kts 195°
2026-05-07 14:01 38.76669 -0.73428 10285 ft 335 kts 195°
2026-05-07 14:01 38.74477 -0.74185 10229 ft 316 kts 195°
2026-05-07 14:01 38.72407 -0.74906 10063 ft 304 kts 195°
2026-05-07 14:02 38.70416 -0.75613 9951 ft 290 kts 195°
2026-05-07 14:02 38.68509 -0.76302 9548 ft 289 kts 195°
2026-05-07 14:02 38.66593 -0.77012 9305 ft 281 kts 196°
2026-05-07 14:02 38.64762 -0.77700 9029 ft 276 kts 196°
2026-05-07 14:03 38.62912 -0.78395 8524 ft 279 kts 196°
2026-05-07 14:03 38.61041 -0.79101 8036 ft 282 kts 196°
2026-05-07 14:03 38.59167 -0.79819 7638 ft 280 kts 197°
2026-05-07 14:03 38.57309 -0.80539 7270 ft 277 kts 197°
2026-05-07 14:04 38.55484 -0.81197 6943 ft 274 kts 194°
2026-05-07 14:04 38.53642 -0.81750 6640 ft 269 kts 192°
2026-05-07 14:04 38.51848 -0.82278 6292 ft 267 kts 193°
2026-05-07 14:04 38.50052 -0.82812 6000 ft 263 kts 193°
2026-05-07 14:05 38.48275 -0.83335 5694 ft 259 kts 193°
2026-05-07 14:05 38.46563 -0.83836 5498 ft 248 kts 193°
2026-05-07 14:05 38.44918 -0.84317 5255 ft 239 kts 193°
2026-05-07 14:05 38.43309 -0.84790 4956 ft 231 kts 193°
2026-05-07 14:06 38.41797 -0.85122 4761 ft 214 kts 182°
2026-05-07 14:06 38.40354 -0.85289 4544 ft 200 kts 188°
2026-05-07 14:06 38.39034 -0.85563 4304 ft 189 kts 189°
2026-05-07 14:06 38.37782 -0.85837 4174 ft 173 kts 189°
2026-05-07 14:07 38.36585 -0.86091 4083 ft 183 kts 189°
2026-05-07 14:07 38.35296 -0.86356 4224 ft 190 kts 186°
2026-05-07 14:07 38.34014 -0.86266 4247 ft 187 kts 165°
2026-05-07 14:07 38.32835 -0.85557 4169 ft 188 kts 142°
2026-05-07 14:08 38.31970 -0.84313 3952 ft 193 kts 119°
2026-05-07 14:08 38.31559 -0.82682 3761 ft 193 kts 98°
2026-05-07 14:08 38.31365 -0.81012 3556 ft 186 kts 98°
2026-05-07 14:08 38.31181 -0.79401 3290 ft 182 kts 98°
2026-05-07 14:09 38.30997 -0.77830 3011 ft 179 kts 99°
2026-05-07 14:09 38.30773 -0.76269 2705 ft 182 kts 99°
2026-05-07 14:09 38.30558 -0.74661 2506 ft 182 kts 99°
2026-05-07 14:09 38.30351 -0.73070 2303 ft 183 kts 98°
2026-05-07 14:10 38.30162 -0.71486 2209 ft 182 kts 98°
2026-05-07 14:10 38.29974 -0.69899 2174 ft 179 kts 98°
2026-05-07 14:10 38.29785 -0.68315 1967 ft 182 kts 98°
2026-05-07 14:10 38.29595 -0.66766 1718 ft 172 kts 99°
2026-05-07 14:11 38.29417 -0.65346 1507 ft 153 kts 99°
2026-05-07 14:11 38.29259 -0.64027 1239 ft 153 kts 98°
2026-05-07 14:11 38.29103 -0.62687 997 ft 152 kts 98°
2026-05-07 14:11 38.28946 -0.61352 776 ft 152 kts 98°
2026-05-07 14:12 38.28789 -0.60027 565 ft 150 kts 98°
2026-05-07 14:12 38.28624 -0.58727 395 ft 148 kts 99°
2026-05-07 14:12 38.28447 -0.57465 169 ft 143 kts 99°
2026-05-07 14:12 38.28295 -0.56353 152 ft 101 kts 99°
2026-05-07 14:13 38.28206 -0.55729 151 ft 46 kts 102°